Flag for Germany Weather past 2 weeks in Neumarkt in der Oberpfalz, Bavaria, Germany

Now
41 °F

Overcast.


Feels Like: 36 °F
Forecast: 32 / 39 °F
Wind: 8 mph from West

Location: Hohenfels

Current Time: Mar 4, 2015 at 5:12:29 PM

Latest Report: Mar 4, 2015 at 3:58 PM


Visibility: N/A

Pressure: 30.32 "Hg

Humidity: 50%

Dew point: 23 °F

Location of Neumarkt in der OberpfalzLocation

Historic Weather in Neumarkt in der Oberpfalz — Graph

°F

Neumarkt in der Oberpfalz temperature yesterday

Maximum temperature yesterday: 46 °F (at 2:58 PM)
Minimum temperature yesterday: 32 °F (at 2:03 AM)
Average temperature yesterday: 38 °F

Past Weeks' High & Low Weather Summary

 TemperatureHumidityPressure
High46 °F (Mar 3, 2:58 PM)100% (Feb 18, 1:58 AM)30.81 "Hg (Feb 18, 1:58 AM)
Low19 °F (Feb 21, 7:58 AM)43% (Mar 3, 2:58 PM)29.53 "Hg (Feb 23, 5:01 PM)
Average33 °F86%30.07 "Hg
* Reported Feb 17 3:58 PM — Mar 4 3:58 PM, Neumarkt in der Oberpfalz, Weather by CustomWeather, © 2015

Note: Actual official high and low records may vary slightly from our data, if they occured in-between our weather recording intervals... More about our weather records

Advertising

Neumarkt in der Oberpfalz weather history for previous 24 hours

 ConditionsComfort  
Time TempWeatherWind HumidityBarometerVisibility
3:58 PM
Wed, Mar 4
41 °FOvercast.8 mph50%30.32 "HgN/A
2:58 PM43 °FPartly sunny.9 mph46%30.30 "HgN/A
1:58 PM41 °FPartly sunny.7 mph53%30.31 "HgN/A
12:58 PM41 °FPartly sunny.12 mph55%30.31 "HgN/A
11:58 AM39 °FMostly cloudy.8 mph61%30.32 "HgN/A
11:03 AM39 °FCloudy.6 mph70%30.27 "HgN/A
10:58 AM38 °FMostly cloudy.6 mph72%30.32 "HgN/A
9:58 AM36 °FMostly cloudy.5 mph76%30.33 "HgN/A
8:58 AM36 °FMore clouds than sun.6 mph81%30.32 "HgN/A
7:58 AM35 °FMore clouds than sun.8 mph79%30.29 "HgN/A
6:58 AM35 °FBroken clouds.10 mph81%30.26 "HgN/A
5:58 AM36 °FPassing clouds.8 mph80%30.21 "HgN/A
4:58 AM36 °FMostly cloudy.10 mph87%30.18 "HgN/A
4:00 AM36 °FMostly cloudy.10 mph87%30.12 "HgN/A
3:58 AM36 °FDrizzle. Mostly cloudy.9 mph87%30.16 "HgN/A
2:04 AM39 °FOvercast.13 mph75%30.09 "HgN/A
12:58 AM40 °FPassing clouds.6 mph63%30.10 "HgN/A
11:58 PM
Tue, Mar 3
41 °FMostly cloudy.6 mph61%30.12 "HgN/A
10:58 PM41 °FPassing clouds.5 mph61%30.12 "HgN/A
9:58 PM38 °FPassing clouds.3 mph68%30.13 "HgN/A
8:58 PM32 °FPassing clouds.2 mph87%30.16 "HgN/A
7:58 PM34 °FPassing clouds.1 mph81%30.17 "HgN/A
6:58 PM38 °FClear.1 mph66%30.17 "HgN/A
5:58 PM42 °FClear.2 mph55%30.17 "HgN/A
Weather by CustomWeather, © 2015

See weather overviewHow to use our weather pages